FW8918 Weather Reports


time (UTC)temp
C
wind
direction
speed
KPH
gust
KPH
rain 1hr
cm
rain 24hr
cm
rain mn
cm
humidity
%
barometer
mb
20260906221536 16 153 4.8 14.5 0.00 0.00 0.00 87 1021.2
20260906220038 16 166 6.4 16.1 0.00 0.00 0.00 87 1021.1
20260906214543 16 300 6.4 12.9 0.00 0.00 0.00 87 1021.2
20260906213036 16 140 6.4 14.5 0.00 0.00 0.00 87 1021.5
20260906211535 16 159 8.0 16.1 0.00 0.00 0.00 87 1021.4
20260906210038 16 167 8.0 20.9 0.00 0.00 0.00 86 1021.4
20260906204541 16 174 9.7 17.7 0.00 0.00 0.00 86 1021.4
20260906203037 16 156 8.0 16.1 0.00 0.00 0.00 86 1021.4
20260906201543 16 179 8.0 17.7 0.00 0.00 0.00 87 1021.7
20260906200034 16 162 6.4 14.5 0.00 0.00 0.00 87 1021.7
20260906194534 16 166 4.8 16.1 0.00 0.00 0.00 86 1021.8
20260906193036 16 247 4.8 12.9 0.00 0.00 0.00 86 1022.0
20260906191534 16 219 6.4 14.5 0.00 0.00 0.00 86 1022.1
20260906190037 16 158 6.4 16.1 0.00 0.00 0.00 86 1022.3
20260906184538 16 234 8.0 16.1 0.00 0.00 0.00 86 1022.5
20260906183045 16 189 6.4 14.5 0.00 0.00 0.00 86 1022.6
20260906181541 16 233 6.4 17.7 0.00 0.00 0.00 85 1022.6
20260906180058 17 248 6.4 19.3 0.00 0.00 0.00 84 1022.8
20260906174534 17 232 8.0 16.1 0.00 0.00 0.00 84 1022.9
20260906173033 17 248 8.0 17.7 0.00 0.00 0.00 84 1023.0
20260906171539 17 210 6.4 16.1 0.00 0.00 0.00 83 1023.1
20260906170036 17 235 6.4 17.7 0.00 0.00 0.00 83 1023.2
20260906164535 17 249 6.4 16.1 0.00 0.00 0.00 82 1023.3
20260906163035 17 202 6.4 16.1 0.00 0.00 0.00 80 1023.6
20260906161547 18 219 11.3 19.3 0.00 0.00 0.00 79 1023.7
20260906160036 18 235 8.0 19.3 0.00 0.00 0.00 78 1023.8
20260906154543 18 162 8.0 19.3 0.00 0.03 0.00 76 1023.9
20260906153044 18 206 8.0 19.3 0.00 0.03 0.00 77 1024.0
20260906151535 18 214 9.7 22.5 0.00 0.03 0.00 77 1024.0
20260906150038 18 252 9.7 20.9 0.00 0.03 0.00 76 1024.0
20260906144537 18 233 9.7 24.1 0.00 0.03 0.00 73 1024.3
20260906143037 17 260 8.0 22.5 0.00 0.03 0.00 74 1024.2
20260906141536 18 236 11.3 19.3 0.00 0.03 0.00 74 1024.3
20260906140036 17 257 8.0 19.3 0.00 0.03 0.00 75 1024.2
20260906134533 17 260 8.0 17.7 0.00 0.05 0.00 75 1024.3
20260906133042 17 248 9.7 24.1 0.00 0.05 0.00 75 1024.4
20260906131548 17 227 9.7 20.9 0.00 0.05 0.00 73 1024.4
20260906130035 18 231 9.7 19.3 0.00 0.05 0.00 72 1024.5
20260906124534 18 233 8.0 17.7 0.00 0.08 0.00 71 1024.5
20260906123036 18 226 8.0 20.9 0.00 0.08 0.00 72 1024.6
20260906121539 18 241 12.9 20.9 0.00 0.08 0.00 70 1024.5
20260906120034 18 249 11.3 20.9 0.00 0.08 0.00 70 1024.6
20260906114546 17 224 8.0 20.9 0.00 0.08 0.00 72 1024.7
20260906113037 17 234 9.7 19.3 0.00 0.08 0.00 72 1024.7
20260906111541 17 266 8.0 20.9 0.00 0.08 0.00 74 1024.7
20260906110034 16 228 4.8 9.7 0.00 0.08 0.00 78 1024.6
20260906104537 16 281 3.2 14.5 0.00 0.08 0.00 76 1024.7
20260906103032 17 247 6.4 16.1 0.00 0.08 0.00 74 1024.8
20260906101537 17 304 8.0 17.7 0.00 0.08 0.00 72 1024.8
20260906100036 17 226 6.4 19.3 0.00 0.08 0.00 73 1024.6
20260906094539 17 266 6.4 17.7 0.00 0.10 0.00 72 1024.7
20260906093036 17 242 4.8 12.9 0.00 0.10 0.00 74 1024.7
20260906091536 17 231 9.7 17.7 0.00 0.10 0.00 73 1024.5
20260906090047 16 240 6.4 17.7 0.00 0.10 0.00 74 1024.2
20260906084539 16 297 4.8 17.7 0.00 0.30 0.00 75 1024.2
20260906083037 16 307 8.0 14.5 0.00 0.30 0.00 75 1024.2
20260906081533 16 295 6.4 17.7 0.00 0.30 0.00 76 1024.0
20260906080039 16 295 6.4 20.9 0.00 0.30 0.00 75 1023.9
20260906074534 16 316 8.0 20.9 0.00 0.46 0.00 76 1023.7
20260906073034 16 249 9.7 19.3 0.00 0.46 0.00 75 1023.6
20260906071532 16 327 6.4 17.7 0.00 0.46 0.00 77 1023.4
20260906070035 15 311 8.0 17.7 0.00 0.46 0.00 74 1023.1
20260906064534 15 296 6.4 20.9 0.00 0.46 0.00 77 1023.1
20260906063037 15 293 8.0 20.9 0.00 0.46 0.00 78 1023.2
20260906061534 14 252 4.8 14.5 0.00 0.46 0.00 79 1023.0
20260906060038 14 286 3.2 14.5 0.00 0.46 0.00 80 1022.8
20260906054537 14 270 4.8 16.1 0.00 0.46 0.00 80 1022.7
20260906053032 13 268 4.8 11.3 0.00 0.46 0.00 80 1022.5
20260906051536 13 314 8.0 16.1 0.00 0.46 0.00 80 1022.4
20260906050036 13 330 1.6 16.1 0.00 0.46 0.00 82 1022.4
20260906044535 13 312 6.4 20.9 0.00 0.46 0.00 82 1022.4
20260906043034 13 299 8.0 22.5 0.00 0.46 0.00 83 1022.3
20260906041531 14 294 8.0 17.7 0.00 0.46 0.00 81 1022.2
20260906040036 14 304 8.0 24.1 0.00 0.46 0.00 80 1022.2
20260906034551 14 322 8.0 20.9 0.00 0.46 0.00 81 1022.0
20260906033039 14 268 4.8 14.5 0.00 0.46 0.00 81 1022.0
20260906031537 14 342 9.7 24.1 0.00 0.46 0.00 79 1022.0
20260906030036 13 288 6.4 14.5 0.00 0.46 0.00 78 1021.8
20260906024540 13 307 6.4 14.5 0.00 0.46 0.00 77 1021.7
20260906023036 13 70 6.4 22.5 0.00 0.46 0.00 78 1021.8
20260906021542 14 240 6.4 16.1 0.00 0.46 0.00 78 1021.5
20260906020039 14 296 8.0 17.7 0.00 0.46 0.00 78 1021.5
20260906014536 14 294 11.3 20.9 0.00 0.46 0.00 77 1021.4
20260906013035 14 316 8.0 24.1 0.00 0.46 0.00 76 1021.4
20260906011533 14 316 9.7 19.3 0.00 0.46 0.00 77 1021.2
20260906010043 14 264 9.7 27.4 0.00 0.46 0.00 76 1021.2
20260906004541 14 273 6.4 24.1 0.00 0.46 0.00 78 1021.1
20260906003036 14 281 9.7 20.9 0.00 0.46 0.00 77 1021.1
20260906001551 14 298 8.0 22.5 0.00 0.46 0.00 79 1020.8
20260906000039 14 293 8.0 22.5 0.00 0.46 0.00 79 1020.6
20260905234538 14 281 9.7 29.0 0.00 0.46 0.00 77 1020.6
20260905233035 14 293 8.0 22.5 0.00 0.46 0.00 79 1020.4
20260905231536 14 302 11.3 25.7 0.00 0.46 0.00 79 1020.3
20260905230038 14 250 9.7 24.1 0.00 0.46 0.00 82 1020.2
20260905224536 14 345 9.7 22.5 0.00 0.46 0.00 80 1020.0
20260905223047 14 299 8.0 24.1 0.00 0.46 0.00 79 1019.9